| time (UTC) | temp F | wind direction | speed MPH | gust MPH | rain 1hr in | rain 24hr in | rain mn in | humidity % | barometer mb |
| 20260906053453 | 83 | 193 | 3.0 | 10.0 | 0.00 | 0.00 | 0.00 | 71 | |
| 20260906052948 | 83 | 166 | 6.0 | 11.0 | 0.00 | 0.00 | 0.00 | 71 | |
| 20260906052444 | 83 | 161 | 4.0 | 11.0 | 0.00 | 0.00 | 0.00 | 71 | |
| 20260906051940 | 83 | 189 | 9.0 | 10.0 | 0.00 | 0.00 | 0.00 | 71 | |
| 20260906051436 | 83 | 170 | 7.0 | 11.0 | 0.00 | 0.00 | 0.00 | 70 | |
| 20260906050931 | 83 | 188 | 7.0 | 10.0 | 0.00 | 0.00 | 0.00 | 70 | |
| 20260906050431 | 84 | 189 | 9.0 | 11.0 | 0.00 | 0.00 | 0.00 | 70 | |
| 20260906045930 | 84 | 181 | 6.0 | 9.0 | 0.00 | 0.00 | 0.00 | 69 | |
| 20260906045429 | 84 | 199 | 9.0 | 11.0 | 0.00 | 0.00 | 0.00 | 68 | |
| 20260906044925 | 84 | 184 | 5.0 | 8.0 | 0.00 | 0.00 | 0.00 | 67 | |
| 20260906044420 | 84 | 201 | 5.0 | 7.0 | 0.00 | 0.00 | 0.00 | 67 | |
| 20260906043915 | 84 | 198 | 4.0 | 9.0 | 0.00 | 0.00 | 0.00 | 66 | |
| 20260906043411 | 84 | 170 | 8.0 | 9.0 | 0.00 | 0.00 | 0.00 | 66 | |
| 20260906042907 | 84 | 178 | 6.0 | 9.0 | 0.00 | 0.00 | 0.00 | 66 | |
| 20260906042406 | 84 | 149 | 3.0 | 5.0 | 0.00 | 0.00 | 0.00 | 65 | |
| 20260906041901 | 85 | 134 | 3.0 | 8.0 | 0.00 | 0.00 | 0.00 | 65 | |
| 20260906041357 | 85 | 185 | 6.0 | 9.0 | 0.00 | 0.00 | 0.00 | 65 | |
| 20260906040856 | 85 | 181 | 2.0 | 10.0 | 0.00 | 0.00 | 0.00 | 65 | |
| 20260906040352 | 85 | 155 | 3.0 | 9.0 | 0.00 | 0.00 | 0.00 | 64 | |
| 20260906035847 | 85 | 153 | 5.0 | 7.0 | 0.00 | 0.00 | 0.00 | 64 | |
| 20260906035343 | 85 | 168 | 4.0 | 8.0 | 0.00 | 0.00 | 0.00 | 64 | |
| 20260906034838 | 85 | 156 | 6.0 | 7.0 | 0.00 | 0.00 | 0.00 | 64 | |
| 20260906034333 | 85 | 128 | 8.0 | 9.0 | 0.00 | 0.00 | 0.00 | 64 | |
| 20260906033829 | 86 | 112 | 7.0 | 8.0 | 0.00 | 0.00 | 0.00 | 64 | |
| 20260906033328 | 86 | 121 | 9.0 | 13.0 | 0.00 | 0.00 | 0.00 | 63 | |
| 20260906032824 | 86 | 153 | 8.0 | 14.0 | 0.00 | 0.00 | 0.00 | 63 | |
| 20260906032320 | 86 | 123 | 7.0 | 8.0 | 0.00 | 0.00 | 0.00 | 62 | |
| 20260906031815 | 86 | 111 | 10.0 | 11.0 | 0.00 | 0.00 | 0.00 | 61 | |
| 20260906031311 | 87 | 108 | 9.0 | 13.0 | 0.00 | 0.00 | 0.00 | 60 | |
| 20260906030810 | 87 | 120 | 7.0 | 10.0 | 0.00 | 0.00 | 0.00 | 59 | |
| 20260906030305 | 87 | 131 | 5.0 | 9.0 | 0.00 | 0.00 | 0.00 | 59 | |
| 20260906025805 | 88 | 150 | 7.0 | 10.0 | 0.00 | 0.00 | 0.00 | 58 | |
| 20260906025258 | 88 | 120 | 6.0 | 7.0 | 0.00 | 0.00 | 0.00 | 58 | |
| 20260906024752 | 88 | 158 | 2.0 | 7.0 | 0.00 | 0.00 | 0.00 | 57 | |
| 20260906024251 | 88 | 133 | 8.0 | 9.0 | 0.00 | 0.00 | 0.00 | 57 | |
| 20260906023747 | 88 | 132 | 5.0 | 10.0 | 0.00 | 0.00 | 0.00 | 57 | |
| 20260906023242 | 89 | 146 | 3.0 | 5.0 | 0.00 | 0.00 | 0.00 | 56 | |
| 20260906022738 | 89 | 133 | 5.0 | 8.0 | 0.00 | 0.00 | 0.00 | 56 | |
| 20260906022233 | 89 | 127 | 5.0 | 8.0 | 0.00 | 0.00 | 0.00 | 55 | |
| 20260906021729 | 89 | 117 | 3.0 | 8.0 | 0.00 | 0.00 | 0.00 | 55 | |
| 20260906021228 | 89 | 127 | 7.0 | 9.0 | 0.00 | 0.00 | 0.00 | 54 | |
| 20260906020723 | 89 | 137 | 6.0 | 9.0 | 0.00 | 0.00 | 0.00 | 54 | |
| 20260906020218 | 90 | 154 | 9.0 | 10.0 | 0.00 | 0.00 | 0.00 | 54 | |
| 20260906015717 | 90 | 177 | 5.0 | 10.0 | 0.00 | 0.00 | 0.00 | 53 | |
| 20260906015210 | 90 | 127 | 6.0 | 8.0 | 0.00 | 0.00 | 0.00 | 52 | |
| 20260906014710 | 91 | 107 | 7.0 | 9.0 | 0.00 | 0.00 | 0.00 | 51 | |
| 20260906014207 | 91 | 98 | 5.0 | 10.0 | 0.00 | 0.00 | 0.00 | 51 | |
| 20260906013702 | 91 | 114 | 6.0 | 8.0 | 0.00 | 0.00 | 0.00 | 51 | |
| 20260906013157 | 91 | 148 | 5.0 | 7.0 | 0.00 | 0.00 | 0.00 | 51 | |
| 20260906012657 | 91 | 129 | 7.0 | 10.0 | 0.00 | 0.00 | 0.00 | 50 | |
| 20260906012152 | 91 | 121 | 6.0 | 10.0 | 0.00 | 0.00 | 0.00 | 50 | |
| 20260906011648 | 91 | 124 | 9.0 | 13.0 | 0.00 | 0.00 | 0.00 | 50 | |
| 20260906011148 | 92 | 123 | 8.0 | 9.0 | 0.00 | 0.00 | 0.00 | 49 | |
| 20260906010643 | 92 | 108 | 7.0 | 11.0 | 0.00 | 0.00 | 0.00 | 47 | |
| 20260906010139 | 93 | 143 | 3.0 | 5.0 | 0.00 | 0.00 | 0.00 | 44 | |
| 20260906005639 | 93 | 113 | 3.0 | 5.0 | 0.00 | 0.00 | 0.00 | 43 | |
| 20260906005138 | 93 | 116 | 5.0 | 6.0 | 0.00 | 0.00 | 0.00 | 42 | |
| 20260906004637 | 94 | 144 | 5.0 | 6.0 | 0.00 | 0.00 | 0.00 | 41 | |
| 20260906004133 | 94 | 136 | 4.0 | 6.0 | 0.00 | 0.00 | 0.00 | 41 | |
| 20260906003627 | 94 | 142 | 1.0 | 5.0 | 0.00 | 0.00 | 0.00 | 41 | |
| 20260906003124 | 94 | 146 | 3.0 | 7.0 | 0.00 | 0.00 | 0.00 | 41 | |
| 20260906002618 | 94 | 124 | 7.0 | 7.0 | 0.00 | 0.00 | 0.00 | 41 | |
| 20260906002113 | 95 | 133 | 6.0 | 7.0 | 0.00 | 0.00 | 0.00 | 41 | |
| 20260906001603 | 95 | 137 | 3.0 | 7.0 | 0.00 | 0.00 | 0.00 | 41 | |
| 20260906001103 | 95 | 155 | 4.0 | 7.0 | 0.00 | 0.00 | 0.00 | 40 | |
| 20260906000559 | 95 | 139 | 4.0 | 7.0 | 0.00 | 0.00 | 0.00 | 40 | |
| 20260906000054 | 95 | 137 | 3.0 | 7.0 | 0.00 | 0.00 | 0.00 | 41 | |
| 20260905235553 | 95 | 198 | 5.0 | 8.0 | 0.00 | 0.00 | 0.00 | 41 | |
| 20260905235048 | 95 | 148 | 7.0 | 8.0 | 0.00 | 0.00 | 0.00 | 40 | |
| 20260905234544 | 95 | 172 | 5.0 | 8.0 | 0.00 | 0.00 | 0.00 | 40 | |
| 20260905234038 | 96 | 162 | 7.0 | 10.0 | 0.00 | 0.00 | 0.00 | 40 | |
| 20260905233533 | 95 | 185 | 7.0 | 8.0 | 0.00 | 0.00 | 0.00 | 40 | |
| 20260905233032 | 96 | 122 | 5.0 | 7.0 | 0.00 | 0.00 | 0.00 | 40 | |
| 20260905232528 | 95 | 182 | 5.0 | 9.0 | 0.00 | 0.00 | 0.00 | 40 | |
| 20260905232023 | 95 | 128 | 5.0 | 8.0 | 0.00 | 0.00 | 0.00 | 40 | |
| 20260905231518 | 96 | 128 | 7.0 | 11.0 | 0.00 | 0.00 | 0.00 | 40 | |
| 20260905231015 | 95 | 191 | 6.0 | 11.0 | 0.00 | 0.00 | 0.00 | 39 | |
| 20260905230514 | 95 | 94 | 5.0 | 9.0 | 0.00 | 0.00 | 0.00 | 40 | |
| 20260905230013 | 96 | 148 | 6.0 | 14.0 | 0.00 | 0.00 | 0.00 | 40 | |
| 20260905225507 | 96 | 112 | 3.0 | 6.0 | 0.00 | 0.00 | 0.00 | 39 | |
| 20260905225003 | 96 | 186 | 5.0 | 8.0 | 0.00 | 0.00 | 0.00 | 38 | |
| 20260905224458 | 96 | 128 | 3.0 | 7.0 | 0.00 | 0.00 | 0.00 | 39 | |
| 20260905223956 | 95 | 198 | 4.0 | 8.0 | 0.00 | 0.00 | 0.00 | 40 | |
| 20260905223454 | 96 | 179 | 10.0 | 13.0 | 0.00 | 0.00 | 0.00 | 39 | |
| 20260905222950 | 97 | 182 | 6.0 | 9.0 | 0.00 | 0.00 | 0.00 | 40 | |
| 20260905222449 | 97 | 133 | 5.0 | 8.0 | 0.00 | 0.00 | 0.00 | 40 | |
| 20260905221945 | 97 | 157 | 3.0 | 6.0 | 0.00 | 0.00 | 0.00 | 39 | |
| 20260905221441 | 96 | 184 | 2.0 | 7.0 | 0.00 | 0.00 | 0.00 | 41 | |
| 20260905220938 | 95 | 135 | 6.0 | 7.0 | 0.00 | 0.00 | 0.00 | 42 | |
| 20260905220433 | 96 | 90 | 4.0 | 6.0 | 0.00 | 0.00 | 0.00 | 41 | |
| 20260905215932 | 96 | 148 | 6.0 | 9.0 | 0.00 | 0.00 | 0.00 | 40 | |
| 20260905215428 | 95 | 91 | 4.0 | 8.0 | 0.00 | 0.00 | 0.00 | 42 | |
| 20260905214924 | 94 | 164 | 5.0 | 6.0 | 0.00 | 0.00 | 0.00 | 43 | |
| 20260905214419 | 94 | 62 | 1.0 | 7.0 | 0.00 | 0.00 | 0.00 | 43 | |
| 20260905213914 | 94 | 51 | 4.0 | 6.0 | 0.00 | 0.00 | 0.00 | 43 | |
| 20260905213410 | 94 | 63 | 3.0 | 9.0 | 0.00 | 0.00 | 0.00 | 44 | |
| 20260905212906 | 95 | 119 | 8.0 | 11.0 | 0.00 | 0.00 | 0.00 | 43 | |
| 20260905212400 | 95 | 20 | 5.0 | 11.0 | 0.00 | 0.00 | 0.00 | 43 | |
| 20260905211900 | 96 | 85 | 9.0 | 10.0 | 0.00 | 0.00 | 0.00 | 43 | |
| 20260905211356 | 95 | 89 | 6.0 | 7.0 | 0.00 | 0.00 | 0.00 | 42 | |
| 20260905210851 | 96 | 82 | 7.0 | 10.0 | 0.00 | 0.00 | 0.00 | 42 | |
| 20260905210351 | 96 | 71 | 6.0 | 8.0 | 0.00 | 0.00 | 0.00 | 41 | |
| 20260905205850 | 97 | 141 | 6.0 | 10.0 | 0.00 | 0.00 | 0.00 | 41 | |
| 20260905205344 | 95 | 91 | 0.0 | 6.0 | 0.00 | 0.00 | 0.00 | 41 | |
| 20260905204838 | 95 | 79 | 1.0 | 8.0 | 0.00 | 0.00 | 0.00 | 42 | |
| 20260905204335 | 95 | 134 | 4.0 | 7.0 | 0.00 | 0.00 | 0.00 | 41 | |
| 20260905203833 | 95 | 132 | 10.0 | 10.0 | 0.00 | 0.00 | 0.00 | 41 | |
| 20260905203330 | 94 | 130 | 4.0 | 6.0 | 0.00 | 0.00 | 0.00 | 43 | |
| 20260905202825 | 94 | 140 | 5.0 | 8.0 | 0.00 | 0.00 | 0.00 | 42 | |
| 20260905202319 | 96 | 137 | 10.0 | 11.0 | 0.00 | 0.00 | 0.00 | 40 | |
| 20260905201815 | 97 | 73 | 4.0 | 6.0 | 0.00 | 0.00 | 0.00 | 40 | |
| 20260905201311 | 96 | 212 | 1.0 | 2.0 | 0.00 | 0.00 | 0.00 | 40 | |
| 20260905200805 | 96 | 155 | 5.0 | 9.0 | 0.00 | 0.00 | 0.00 | 40 | |
| 20260905200301 | 95 | 129 | 4.0 | 5.0 | 0.00 | 0.00 | 0.00 | 42 | |
| 20260905195759 | 95 | 48 | 1.0 | 7.0 | 0.00 | 0.00 | 0.00 | 42 | |
| 20260905195254 | 94 | 234 | 7.0 | 11.0 | 0.00 | 0.00 | 0.00 | 43 | |
| 20260905194749 | 95 | 178 | 1.0 | 5.0 | 0.00 | 0.00 | 0.00 | 42 | |
| 20260905194249 | 94 | 129 | 2.0 | 3.0 | 0.00 | 0.00 | 0.00 | 43 | |
| 20260905193748 | 94 | 225 | 5.0 | 9.0 | 0.00 | 0.00 | 0.00 | 45 | |
| 20260905193244 | 94 | 152 | 7.0 | 9.0 | 0.00 | 0.00 | 0.00 | 45 | |
| 20260905192739 | 93 | 171 | 9.0 | 10.0 | 0.00 | 0.00 | 0.00 | 45 | |
| 20260905192235 | 94 | 202 | 9.0 | 11.0 | 0.00 | 0.00 | 0.00 | 44 | |
| 20260905191734 | 94 | 184 | 2.0 | 5.0 | 0.00 | 0.00 | 0.00 | 45 | |
| 20260905191232 | 93 | 221 | 7.0 | 9.0 | 0.00 | 0.00 | 0.00 | 45 | |
| 20260905190731 | 94 | 146 | 6.0 | 8.0 | 0.00 | 0.00 | 0.00 | 46 | |
| 20260905190231 | 94 | 211 | 4.0 | 6.0 | 0.00 | 0.00 | 0.00 | 46 | |
| 20260905185730 | 92 | 110 | 7.0 | 9.0 | 0.00 | 0.00 | 0.00 | 48 | |
| 20260905185225 | 93 | 119 | 8.0 | 11.0 | 0.00 | 0.00 | 0.00 | 48 | |
| 20260905184725 | 92 | 161 | 5.0 | 9.0 | 0.00 | 0.00 | 0.00 | 48 | |
| 20260905184224 | 93 | 156 | 8.0 | 11.0 | 0.00 | 0.00 | 0.00 | 48 | |
| 20260905183723 | 92 | 144 | 3.0 | 6.0 | 0.00 | 0.00 | 0.00 | 50 | |
| 20260905183219 | 92 | 186 | 5.0 | 6.0 | 0.00 | 0.00 | 0.00 | 50 | |
| 20260905182713 | 93 | 214 | 7.0 | 11.0 | 0.00 | 0.00 | 0.00 | 49 | |
| 20260905182212 | 93 | 208 | 4.0 | 8.0 | 0.00 | 0.00 | 0.00 | 48 | |
| 20260905181708 | 92 | 227 | 7.0 | 10.0 | 0.00 | 0.00 | 0.00 | 49 | |
| 20260905181207 | 91 | 203 | 3.0 | 3.0 | 0.00 | 0.00 | 0.00 | 52 | |
| 20260905180701 | 90 | 126 | 5.0 | 7.0 | 0.00 | 0.00 | 0.00 | 53 | |
| 20260905180157 | 91 | 237 | 4.0 | 8.0 | 0.00 | 0.00 | 0.00 | 53 | |
| 20260905175656 | 92 | 146 | 6.0 | 9.0 | 0.00 | 0.00 | 0.00 | 51 | |
| 20260905175151 | 92 | 134 | 9.0 | 10.0 | 0.00 | 0.00 | 0.00 | 50 | |
| 20260905174647 | 92 | 103 | 2.0 | 6.0 | 0.00 | 0.00 | 0.00 | 51 | |
| 20260905174142 | 91 | 111 | 5.0 | 6.0 | 0.00 | 0.00 | 0.00 | 50 | |
| 20260905173638 | 92 | 180 | 9.0 | 11.0 | 0.00 | 0.00 | 0.00 | 51 | |
| 20260905173134 | 92 | 147 | 7.0 | 10.0 | 0.00 | 0.00 | 0.00 | 51 | |
| 20260905172632 | 90 | 131 | 2.0 | 5.0 | 0.00 | 0.00 | 0.00 | 53 | |
| 20260905172128 | 91 | 130 | 8.0 | 9.0 | 0.00 | 0.00 | 0.00 | 51 | |
| 20260905171624 | 91 | 170 | 4.0 | 7.0 | 0.00 | 0.00 | 0.00 | 52 | |
| 20260905171120 | 91 | 179 | 5.0 | 7.0 | 0.00 | 0.00 | 0.00 | 52 | |
| 20260905170616 | 91 | 129 | 4.0 | 6.0 | 0.00 | 0.00 | 0.00 | 52 | |
| 20260905170111 | 91 | 228 | 4.0 | 7.0 | 0.00 | 0.00 | 0.00 | 52 | |
| 20260905165605 | 91 | 169 | 5.0 | 10.0 | 0.00 | 0.00 | 0.00 | 53 | |
| 20260905165101 | 91 | 219 | 2.0 | 7.0 | 0.00 | 0.00 | 0.00 | 54 | |
| 20260905164555 | 90 | 194 | 4.0 | 6.0 | 0.00 | 0.00 | 0.00 | 54 | |
| 20260905164050 | 90 | 158 | 8.0 | 13.0 | 0.00 | 0.00 | 0.00 | 53 | |
| 20260905163546 | 89 | 239 | 5.0 | 10.0 | 0.00 | 0.00 | 0.00 | 57 | |
| 20260905163042 | 89 | 221 | 4.0 | 6.0 | 0.00 | 0.00 | 0.00 | 58 | |
| 20260905162538 | 89 | 203 | 6.0 | 8.0 | 0.00 | 0.00 | 0.00 | 57 | |
| 20260905162037 | 88 | 227 | 7.0 | 10.0 | 0.00 | 0.00 | 0.00 | 59 | |
| 20260905161532 | 88 | 218 | 5.0 | 9.0 | 0.00 | 0.00 | 0.00 | 61 | |
| 20260905161030 | 87 | 201 | 1.0 | 6.0 | 0.00 | 0.00 | 0.00 | 61 | |
| 20260905160528 | 86 | 265 | 4.0 | 7.0 | 0.00 | 0.00 | 0.00 | 64 | |
| 20260905160028 | 86 | 208 | 3.0 | 8.0 | 0.00 | 0.00 | 0.00 | 64 | |
| 20260905155528 | 86 | 173 | 6.0 | 9.0 | 0.00 | 0.00 | 0.00 | 65 | |
| 20260905155027 | 86 | 191 | 4.0 | 7.0 | 0.00 | 0.00 | 0.00 | 66 | |
| 20260905154522 | 86 | 142 | 4.0 | 7.0 | 0.00 | 0.00 | 0.00 | 66 | |
| 20260905154018 | 86 | 178 | 5.0 | 8.0 | 0.00 | 0.00 | 0.00 | 66 | |
| 20260905153514 | 85 | 151 | 5.0 | 9.0 | 0.00 | 0.00 | 0.00 | 69 | |
| 20260905153013 | 84 | 178 | 4.0 | 5.0 | 0.00 | 0.00 | 0.00 | 72 | |
| 20260905152508 | 85 | 207 | 4.0 | 10.0 | 0.00 | 0.00 | 0.00 | 71 | |
| 20260905152003 | 84 | 155 | 1.0 | 7.0 | 0.00 | 0.00 | 0.00 | 73 | |
| 20260905151458 | 84 | 129 | 1.0 | 6.0 | 0.00 | 0.00 | 0.00 | 73 | |
| 20260905150953 | 84 | 182 | 6.0 | 8.0 | 0.00 | 0.00 | 0.00 | 73 | |
| 20260905150448 | 83 | 202 | 2.0 | 7.0 | 0.00 | 0.00 | 0.00 | 76 | |
| 20260905145944 | 82 | 191 | 2.0 | 8.0 | 0.00 | 0.00 | 0.00 | 78 | |
| 20260905145439 | 83 | 183 | 7.0 | 10.0 | 0.00 | 0.00 | 0.00 | 77 | |
| 20260905144938 | 82 | 179 | 5.0 | 9.0 | 0.00 | 0.00 | 0.00 | 79 | |
| 20260905144434 | 82 | 210 | 6.0 | 7.0 | 0.00 | 0.00 | 0.00 | 79 | |
| 20260905143933 | 82 | 188 | 2.0 | 5.0 | 0.00 | 0.00 | 0.00 | 83 | |
| 20260905143432 | 81 | 201 | 3.0 | 7.0 | 0.00 | 0.00 | 0.00 | 85 | |
| 20260905142933 | 80 | 220 | 3.0 | 6.0 | 0.00 | 0.00 | 0.00 | 86 | |
| 20260905142432 | 80 | 169 | 2.0 | 5.0 | 0.00 | 0.00 | 0.00 | 88 | |
| 20260905141927 | 79 | 206 | 5.0 | 7.0 | 0.00 | 0.00 | 0.00 | 89 | |
| 20260905141422 | 79 | 198 | 4.0 | 8.0 | 0.00 | 0.00 | 0.00 | 90 | |
| 20260905140919 | 78 | 202 | 3.0 | 6.0 | 0.00 | 0.00 | 0.00 | 92 | |
| 20260905140414 | 78 | 190 | 7.0 | 7.0 | 0.00 | 0.00 | 0.00 | 92 | |
| 20260905135912 | 78 | 207 | 2.0 | 5.0 | 0.00 | 0.00 | 0.00 | 94 | |
| 20260905135408 | 77 | 186 | 3.0 | 5.0 | 0.00 | 0.00 | 0.00 | 95 | |
| 20260905134903 | 77 | 190 | 3.0 | 7.0 | 0.00 | 0.00 | 0.00 | 95 | |
| 20260905134402 | 77 | 134 | 1.0 | 5.0 | 0.00 | 0.00 | 0.00 | 96 | |
| 20260905133856 | 77 | 145 | 4.0 | 5.0 | 0.00 | 0.00 | 0.00 | 96 | |
| 20260905133352 | 76 | 165 | 3.0 | 5.0 | 0.00 | 0.00 | 0.00 | 96 | |
| 20260905132851 | 76 | 159 | 5.0 | 7.0 | 0.00 | 0.00 | 0.00 | 95 | |
| 20260905132347 | 76 | 137 | 2.0 | 3.0 | 0.00 | 0.00 | 0.00 | 95 | |
| 20260905131846 | 75 | 143 | 1.0 | 3.0 | 0.00 | 0.00 | 0.00 | 95 | |
| 20260905131342 | 75 | 151 | 2.0 | 2.0 | 0.00 | 0.00 | 0.00 | 95 | |
| 20260905130837 | 74 | 162 | 0.0 | 2.0 | 0.00 | 0.00 | 0.00 | 94 | |
| 20260905130336 | 73 | 159 | 1.0 | 2.0 | 0.00 | 0.00 | 0.00 | 95 | |
| 20260905125832 | 73 | 173 | 0.0 | 0.0 | 0.00 | 0.00 | 0.00 | 94 | |
| 20260905125326 | 72 | 155 | 0.0 | 0.0 | 0.00 | 0.00 | 0.00 | 94 | |
| 20260905124822 | 72 | 155 | 0.0 | 0.0 | 0.00 | 0.00 | 0.00 | 94 | |
| 20260905124319 | 72 | 152 | 0.0 | 0.0 | 0.00 | 0.00 | 0.00 | 94 | |
| 20260905123813 | 71 | 146 | 0.0 | 0.0 | 0.00 | 0.00 | 0.00 | 94 | |
| 20260905123310 | 71 | 146 | 0.0 | 0.0 | 0.00 | 0.00 | 0.00 | 94 | |
| 20260905122809 | 72 | 146 | 0.0 | 0.0 | 0.00 | 0.00 | 0.00 | 94 | |
| 20260905122309 | 73 | 146 | 0.0 | 0.0 | 0.00 | 0.00 | 0.00 | 94 | |
| 20260905121804 | 73 | 147 | 0.0 | 0.0 | 0.00 | 0.00 | 0.00 | 94 | |
| 20260905121301 | 73 | 146 | 0.0 | 0.0 | 0.00 | 0.00 | 0.00 | 94 | |
| 20260905120759 | 73 | 152 | 0.0 | 0.0 | 0.00 | 0.00 | 0.00 | 94 | |
| 20260905120259 | 73 | 154 | 0.0 | 1.0 | 0.00 | 0.00 | 0.00 | 94 | |
| 20260905115755 | 72 | 154 | 0.0 | 1.0 | 0.00 | 0.00 | 0.00 | 94 | |
| 20260905115254 | 72 | 229 | 1.0 | 1.0 | 0.00 | 0.00 | 0.00 | 94 | |
| 20260905114754 | 72 | 270 | 0.0 | 1.0 | 0.00 | 0.00 | 0.00 | 94 | |
| 20260905114253 | 72 | 269 | 2.0 | 2.0 | 0.00 | 0.00 | 0.00 | 93 | |
| 20260905113752 | 72 | 269 | 2.0 | 2.0 | 0.00 | 0.00 | 0.00 | 93 | |
| 20260905113243 | 72 | 134 | 0.0 | 0.0 | 0.00 | 0.00 | 0.00 | 93 | |
| 20260905112738 | 73 | 135 | 0.0 | 0.0 | 0.00 | 0.00 | 0.00 | 92 | |
| 20260905112237 | 73 | 126 | 0.0 | 0.0 | 0.00 | 0.00 | 0.00 | 93 | |
| 20260905111733 | 73 | 124 | 0.0 | 0.0 | 0.00 | 0.00 | 0.00 | 93 | |
| 20260905111227 | 73 | 125 | 0.0 | 1.0 | 0.00 | 0.00 | 0.00 | 93 | |
| 20260905110726 | 73 | 126 | 0.0 | 0.0 | 0.00 | 0.00 | 0.00 | 92 | |
| 20260905110221 | 73 | 126 | 0.0 | 0.0 | 0.00 | 0.00 | 0.00 | 91 | |
| 20260905105716 | 74 | 126 | 0.0 | 0.0 | 0.00 | 0.00 | 0.00 | 91 | |
| 20260905105215 | 74 | 126 | 0.0 | 0.0 | 0.00 | 0.00 | 0.00 | 91 | |
| 20260905104710 | 74 | 129 | 0.0 | 1.0 | 0.00 | 0.00 | 0.00 | 91 | |
| 20260905104206 | 74 | 135 | 0.0 | 1.0 | 0.00 | 0.00 | 0.00 | 91 | |
| 20260905103701 | 75 | 153 | 1.0 | 2.0 | 0.00 | 0.00 | 0.00 | 92 | |
| 20260905103157 | 75 | 111 | 1.0 | 1.0 | 0.00 | 0.00 | 0.00 | 92 | |
| 20260905102653 | 75 | 64 | 0.0 | 0.0 | 0.00 | 0.00 | 0.00 | 92 | |
| 20260905102149 | 75 | 59 | 1.0 | 1.0 | 0.00 | 0.00 | 0.00 | 92 | |
| 20260905101647 | 74 | 31 | 1.0 | 1.0 | 0.00 | 0.00 | 0.00 | 91 | |
| 20260905101145 | 75 | 9 | 1.0 | 2.0 | 0.00 | 0.00 | 0.00 | 91 | |
| 20260905100641 | 75 | 163 | 0.0 | 0.0 | 0.00 | 0.00 | 0.00 | 91 | |
| 20260905100131 | 75 | 169 | 1.0 | 1.0 | 0.00 | 0.00 | 0.00 | 90 | |
| 20260905095631 | 75 | 167 | 1.0 | 3.0 | 0.00 | 0.00 | 0.00 | 90 | |
| 20260905095126 | 75 | 159 | 0.0 | 1.0 | 0.00 | 0.00 | 0.00 | 91 | |
| 20260905094621 | 75 | 133 | 1.0 | 1.0 | 0.00 | 0.00 | 0.00 | 91 | |
| 20260905094120 | 75 | 182 | 2.0 | 3.0 | 0.00 | 0.00 | 0.00 | 91 | |
| 20260905093620 | 75 | 204 | 2.0 | 2.0 | 0.00 | 0.00 | 0.00 | 91 | |
| 20260905093117 | 75 | 227 | 3.0 | 3.0 | 0.00 | 0.00 | 0.00 | 91 | |
| 20260905092616 | 75 | 233 | 1.0 | 1.0 | 0.00 | 0.00 | 0.00 | 90 | |
| 20260905092113 | 75 | 240 | 1.0 | 1.0 | 0.00 | 0.00 | 0.00 | 90 | |
| 20260905091612 | 75 | 196 | 1.0 | 1.0 | 0.00 | 0.00 | 0.00 | 90 | |
| 20260905091106 | 75 | 179 | 1.0 | 2.0 | 0.00 | 0.00 | 0.00 | 90 | |
| 20260905090601 | 75 | 183 | 2.0 | 3.0 | 0.00 | 0.00 | 0.00 | 90 | |
| 20260905090056 | 76 | 211 | 2.0 | 5.0 | 0.00 | 0.00 | 0.00 | 90 | |
| 20260905085555 | 76 | 176 | 2.0 | 3.0 | 0.00 | 0.00 | 0.00 | 89 | |
| 20260905085050 | 76 | 179 | 3.0 | 5.0 | 0.00 | 0.00 | 0.00 | 89 | |
| 20260905084549 | 76 | 185 | 3.0 | 6.0 | 0.00 | 0.00 | 0.00 | 89 | |
| 20260905084045 | 76 | 167 | 3.0 | 6.0 | 0.00 | 0.00 | 0.00 | 89 | |
| 20260905083539 | 76 | 179 | 3.0 | 7.0 | 0.00 | 0.00 | 0.00 | 89 | |
| 20260905083036 | 76 | 172 | 3.0 | 6.0 | 0.00 | 0.00 | 0.00 | 89 | |
| 20260905082531 | 76 | 186 | 2.0 | 5.0 | 0.00 | 0.00 | 0.00 | 88 | |
| 20260905082027 | 76 | 176 | 2.0 | 5.0 | 0.00 | 0.00 | 0.00 | 88 | |
| 20260905081526 | 76 | 165 | 3.0 | 5.0 | 0.00 | 0.00 | 0.00 | 88 | |
| 20260905081021 | 76 | 162 | 2.0 | 3.0 | 0.00 | 0.00 | 0.00 | 88 | |
| 20260905080520 | 76 | 171 | 1.0 | 7.0 | 0.00 | 0.00 | 0.00 | 88 | |
| 20260905080016 | 76 | 162 | 5.0 | 6.0 | 0.00 | 0.00 | 0.00 | 87 | |
| 20260905075509 | 76 | 141 | 3.0 | 6.0 | 0.00 | 0.00 | 0.00 | 87 | |
| 20260905075009 | 76 | 167 | 6.0 | 7.0 | 0.00 | 0.00 | 0.00 | 87 | |
| 20260905074504 | 77 | 174 | 5.0 | 7.0 | 0.00 | 0.00 | 0.00 | 87 | |
| 20260905073959 | 77 | 208 | 5.0 | 7.0 | 0.00 | 0.00 | 0.00 | 87 | |
| 20260905073454 | 77 | 201 | 3.0 | 6.0 | 0.00 | 0.00 | 0.00 | 86 | |
| 20260905072949 | 77 | 192 | 3.0 | 3.0 | 0.00 | 0.00 | 0.00 | 86 | |
| 20260905072444 | 77 | 193 | 5.0 | 7.0 | 0.00 | 0.00 | 0.00 | 86 | |
| 20260905071940 | 77 | 136 | 1.0 | 3.0 | 0.00 | 0.00 | 0.00 | 86 | |
| 20260905071437 | 77 | 144 | 2.0 | 3.0 | 0.00 | 0.00 | 0.00 | 86 | |
| 20260905070936 | 77 | 201 | 1.0 | 3.0 | 0.00 | 0.00 | 0.00 | 85 | |
| 20260905070432 | 77 | 179 | 1.0 | 3.0 | 0.00 | 0.00 | 0.00 | 85 | |
| 20260905065932 | 77 | 151 | 1.0 | 2.0 | 0.00 | 0.00 | 0.00 | 85 | |
| 20260905065430 | 77 | 167 | 3.0 | 3.0 | 0.00 | 0.00 | 0.00 | 84 | |
| 20260905064925 | 77 | 151 | 3.0 | 3.0 | 0.00 | 0.00 | 0.00 | 84 | |
| 20260905064421 | 77 | 200 | 3.0 | 5.0 | 0.00 | 0.00 | 0.00 | 84 | |
| 20260905063921 | 77 | 208 | 3.0 | 6.0 | 0.00 | 0.00 | 0.00 | 84 | |
| 20260905063415 | 78 | 186 | 3.0 | 5.0 | 0.00 | 0.00 | 0.00 | 83 | |
| 20260905062912 | 78 | 186 | 4.0 | 5.0 | 0.00 | 0.00 | 0.00 | 83 | |
| 20260905062406 | 78 | 190 | 3.0 | 7.0 | 0.00 | 0.00 | 0.00 | 83 | |
| 20260905061901 | 78 | 183 | 6.0 | 7.0 | 0.00 | 0.00 | 0.00 | 82 | |
| 20260905061401 | 78 | 166 | 3.0 | 6.0 | 0.00 | 0.00 | 0.00 | 82 | |
| 20260905060855 | 78 | 196 | 5.0 | 8.0 | 0.00 | 0.00 | 0.00 | 82 | |
| 20260905060352 | 78 | 177 | 5.0 | 7.0 | 0.00 | 0.00 | 0.00 | 82 | |
| 20260905055850 | 79 | 200 | 4.0 | 6.0 | 0.00 | 0.00 | 0.00 | 81 | |
| 20260905055346 | 79 | 189 | 7.0 | 9.0 | 0.00 | 0.00 | 0.00 | 81 | |
| 20260905054845 | 79 | 196 | 2.0 | 6.0 | 0.00 | 0.00 | 0.00 | 81 | |
| 20260905054342 | 79 | 107 | 3.0 | 7.0 | 0.00 | 0.00 | 0.00 | 81 | |
| 20260905053841 | 79 | 148 | 3.0 | 6.0 | 0.00 | 0.00 | 0.00 | 81 |